Location: ?????
(31.8092°N, 35.2590°E)
Time: 18:55:44
(UTC+00:00)

IGS 5A - Pass Details

Date: 20 June 2021
Orbit: 583 x 587 km, 97.6° (Epoch: 17 July)

Event Time Altitude Azimuth Distance (km) Brightness Sun altitude
Exits shadow 18:26:00 33° 165° (SSE) 990 4.1 -17.8°
Maximum altitude 18:27:49 86° 78° (ENE) 593 3.3 -18.0°
Drops below altitude 10° 18:31:59 10° 349° (N) 1,916 6.9 -18.7°
Sets 18:34:09 0° 349° (N) 2,820 7.9 -19.0°
